This is the latest recevied weather packets stored in our database for station/object F4ETJ-1. If no packets are shown the sender has not sent any weather packets the latest 10 day(s).
| Time | Temp. | Humidity | Pressure | Rain* | Wind** | Luminosity | Snow |
|---|---|---|---|---|---|---|---|
| 1787640891 | 18.33° C | 95% | 1008.2 hPa | 0.51 mm | - | - | - |
| 1787640531 | 18.33° C | 95% | 1008.1 hPa | 0.76 mm | - | - | - |
| 1787640170 | 18.33° C | 95% | 1008 hPa | 1.27 mm | - | - | - |
| 1787639810 | 18.33° C | 95% | 1007.9 hPa | 2.54 mm | - | - | - |
| 1787639450 | 18.89° C | 95% | 1007.8 hPa | 3.81 mm | - | - | - |
| 1787639089 | 18.33° C | 95% | 1007.8 hPa | 4.83 mm | - | - | - |
| 1787638729 | 18.89° C | 95% | 1007.8 hPa | 6.35 mm | - | - | - |
| 1787638369 | 18.89° C | 95% | 1007.8 hPa | 6.6 mm | - | - | - |
| 1787638008 | 18.89° C | 95% | 1007.8 hPa | 7.11 mm | - | - | - |
| 1787637648 | 18.89° C | 95% | 1007.9 hPa | 7.37 mm | - | - | - |
| 1787637288 | 18.89° C | 95% | 1007.9 hPa | 7.11 mm | - | - | - |
| 1787636927 | 18.89° C | 94% | 1007.8 hPa | 6.86 mm | - | - | - |
| 1787636567 | 18.89° C | 94% | 1007.8 hPa | 6.35 mm | - | - | - |
| 1787636207 | 18.89° C | 94% | 1007.8 hPa | 5.08 mm | - | - | - |
| 1787635847 | 18.89° C | 95% | 1007.8 hPa | 3.81 mm | - | - | - |
| 1787635486 | 18.89° C | 94% | 1007.7 hPa | 3.05 mm | - | - | - |
| 1787635126 | 18.89° C | 94% | 1007.7 hPa | 1.78 mm | - | - | - |
| 1787634765 | 18.89° C | 94% | 1007.5 hPa | 1.78 mm | - | - | - |
| 1787634405 | 18.89° C | 94% | 1007.4 hPa | 1.78 mm | - | - | - |
| 1787634045 | 18.89° C | 94% | 1007.4 hPa | 1.52 mm | - | - | - |
| 1787633684 | 18.33° C | 94% | 1007.2 hPa | 1.52 mm | - | - | - |
| 1787633324 | 18.33° C | 94% | 1007.1 hPa | 1.52 mm | - | - | - |
| 1787632964 | 18.33° C | 94% | 1007 hPa | 1.78 mm | - | - | - |
| 1787632603 | 18.33° C | 94% | 1007 hPa | 1.78 mm | - | - | - |
| 1787632243 | 18.33° C | 94% | 1006.9 hPa | 2.03 mm | - | - | - |
* Rain latest hour (hover to see other rain measurements)
** Current wind speed in m/s (hover to see current wind gust speed)